Fort Meade, MD

2:16 PM EDT on June 28, 2017 (GMT -0400)
Tipton

Weather History for KFME - March, 2013

Change the Weather History Date:

Thursday, March 7, 2013

  Actual Average (KBWI) Record (KBWI)
Temperature  
Mean Temperature 42 °F -  
Max Temperature 50 °F 50 °F 76 °F (1974)
Min Temperature 33 °F 31 °F 6 °F (2015)
Degree Days  
Heating Degree Days 24    
Moisture  
Dew Point 27 °F    
Average Humidity 62    
Maximum Humidity 81    
Minimum Humidity 35    
Precipitation  
Precipitation 0.00 in - - ()
Sea Level Pressure  
Sea Level Pressure 30.09 in    
Wind  
Wind Speed 8 mph (NNW)    
Max Wind Speed 18 mph    
Max Gust Speed 29 mph    
Visibility 10 miles    
Events      
Averages and records for this station are not official NWS values.
T = Trace of Precipitation, MM = Missing Value Source: NWS Daily Summary

Daily Weather History Graph

Daily Weather History Graph

Search for Another Location

Airport or City:

Trip Planner

Search our weather history database for the weather conditions in past years. The results will help you decide how hot, cold, wet, or windy it might be!

Date:

Astronomy

Mar. 07, 2013 Rise Set
Actual Time 6:30 AM EST 6:06 PM EST
Civil Twilight 6:03 AM EST 6:32 PM EST
Nautical Twilight 5:32 AM EST 7:03 PM EST
Astronomical Twilight 5:01 AM EST 7:34 PM EST
Moon 3:26 AM EST (3/7) 1:53 PM EST (3/7)
Length of Visible Light 12h 29m
Length of Day
11h 35m
Waning Crescent, 20% of the Moon is Illuminated
Mar 7
Waning Crescent
Mar 11
New
Mar 19
First Quarter
Mar 27
Full
Apr 3
Last Quarter

Hourly Weather History & Observations

Time (EST) Temp. Windchill Dew Point Humidity Pressure Visibility Wind Dir Wind Speed Gust Speed Precip Events Conditions
12:06 AM 37.4 °F 32.8 °F 30.2 °F 75% 30.01 in 10.0 mi NNW 5.8 mph - N/A   Overcast
12:24 AM 37.4 °F 32.1 °F 30.2 °F 75% 30.01 in 10.0 mi NNW 6.9 mph - N/A   Overcast
12:45 AM 37.4 °F 30.3 °F 30.2 °F 75% 30.02 in 10.0 mi NNW 10.4 mph - N/A   Overcast
1:06 AM 37.4 °F 32.8 °F 30.2 °F 75% 30.02 in 10.0 mi NNW 5.8 mph - N/A   Overcast
1:24 AM 37.4 °F 32.8 °F 30.2 °F 75% 30.01 in 10.0 mi NNW 5.8 mph - N/A   Overcast
1:45 AM 37.4 °F 33.8 °F 32.0 °F 81% 30.01 in 10.0 mi NNW 4.6 mph - N/A   Overcast
2:06 AM 35.6 °F 31.7 °F 30.2 °F 81% 30.02 in 10.0 mi NNW 4.6 mph - N/A   Mostly Cloudy
2:24 AM 35.6 °F 31.7 °F 30.2 °F 81% 30.01 in 10.0 mi NNW 4.6 mph - N/A   Overcast
2:45 AM 35.6 °F 31.7 °F 30.2 °F 81% 30.02 in 10.0 mi NNW 4.6 mph - N/A   Overcast
3:06 AM 35.6 °F 29.2 °F 30.2 °F 81% 30.02 in 10.0 mi NNW 8.1 mph - N/A   Overcast
3:24 AM 35.6 °F 29.9 °F 30.2 °F 81% 30.03 in 10.0 mi NW 6.9 mph - N/A   Overcast
4:06 AM 35.6 °F 29.9 °F 30.2 °F 81% 30.04 in 10.0 mi NW 6.9 mph - N/A   Overcast
4:24 AM 35.6 °F 29.9 °F 28.4 °F 75% 30.05 in 10.0 mi NNW 6.9 mph - N/A   Overcast
4:45 AM 35.6 °F 29.9 °F 28.4 °F 75% 30.05 in 10.0 mi NNW 6.9 mph - N/A   Scattered Clouds
5:06 AM 35.6 °F 29.9 °F 28.4 °F 75% 30.05 in 10.0 mi NNW 6.9 mph - N/A   Clear
5:27 AM 33.8 °F 29.6 °F 28.4 °F 81% 30.06 in 10.0 mi NW 4.6 mph - N/A   Clear
5:45 AM 33.8 °F 27.7 °F 28.4 °F 81% 30.06 in 10.0 mi NW 6.9 mph - N/A   Clear
6:06 AM 33.8 °F 28.6 °F 28.4 °F 81% 30.07 in 10.0 mi NW 5.8 mph - N/A   Clear
6:27 AM 33.8 °F 27.7 °F 26.6 °F 75% 30.07 in 10.0 mi NNW 6.9 mph - N/A   Clear
6:45 AM 35.6 °F 31.7 °F 26.6 °F 70% 30.07 in 10.0 mi NNW 4.6 mph - N/A   Clear
7:06 AM 33.8 °F 29.6 °F 26.6 °F 75% 30.08 in 10.0 mi NW 4.6 mph - N/A   Clear
7:27 AM 35.6 °F 32.8 °F 26.6 °F 70% 30.09 in 10.0 mi NNW 3.5 mph - N/A   Clear
7:45 AM 37.4 °F 33.8 °F 26.6 °F 65% 30.09 in 10.0 mi NW 4.6 mph - N/A   Clear
8:06 AM 39.2 °F 33.0 °F 26.6 °F 61% 30.10 in 10.0 mi North 9.2 mph - N/A   Clear
8:27 AM 41.0 °F 35.8 °F 26.6 °F 57% 30.10 in 10.0 mi NNW 8.1 mph - N/A   Clear
8:45 AM 41.0 °F 33.5 °F 26.6 °F 57% 30.11 in 10.0 mi NNW 13.8 mph 20.7 mph N/A   Scattered Clouds
9:06 AM 42.8 °F 36.2 °F 26.6 °F 53% 30.11 in 10.0 mi North 12.7 mph 17.3 mph N/A   Mostly Cloudy
9:27 AM 41.0 °F 33.9 °F 24.8 °F 53% 30.12 in 10.0 mi North 12.7 mph 21.9 mph N/A   Scattered Clouds
9:45 AM 41.0 °F 34.7 °F 24.8 °F 53% 30.11 in 10.0 mi NNW 10.4 mph 17.3 mph N/A   Scattered Clouds
10:06 AM 42.8 °F 35.8 °F 26.6 °F 53% 30.12 in 10.0 mi North 13.8 mph 20.7 mph N/A   Scattered Clouds
10:27 AM 44.6 °F 39.7 °F 26.6 °F 49% 30.12 in 10.0 mi NNW 9.2 mph 19.6 mph N/A   Scattered Clouds
10:45 AM 42.8 °F 35.4 °F 26.6 °F 53% 30.12 in 10.0 mi NW 15.0 mph 21.9 mph N/A   Mostly Cloudy
11:06 AM 44.6 °F 38.1 °F 26.6 °F 49% 30.12 in 10.0 mi North 13.8 mph 19.6 mph N/A   Scattered Clouds
11:27 AM 44.6 °F 38.4 °F 26.6 °F 49% 30.12 in 10.0 mi North 12.7 mph 24.2 mph N/A   Scattered Clouds
11:45 AM 46.4 °F 41.9 °F 26.6 °F 46% 30.12 in 10.0 mi North 9.2 mph 18.4 mph N/A   Mostly Cloudy
12:06 PM 46.4 °F 40.4 °F 26.6 °F 46% 30.12 in 10.0 mi North 13.8 mph 25.3 mph N/A   Scattered Clouds
12:27 PM 46.4 °F 41.1 °F 26.6 °F 46% 30.11 in 10.0 mi North 11.5 mph 27.6 mph N/A   Scattered Clouds
12:45 PM 46.4 °F 40.1 °F 26.6 °F 46% 30.11 in 10.0 mi North 15.0 mph 21.9 mph N/A   Scattered Clouds
1:06 PM 46.4 °F 40.4 °F 24.8 °F 43% 30.10 in 10.0 mi North 13.8 mph 24.2 mph N/A   Scattered Clouds
1:27 PM 46.4 °F 40.4 °F 26.6 °F 46% 30.09 in 10.0 mi NW 13.8 mph 21.9 mph N/A   Scattered Clouds
1:48 PM 48.2 °F - 26.6 °F 43% 30.09 in 10.0 mi WNW 11.5 mph 20.7 mph N/A   Scattered Clouds
2:06 PM 46.4 °F 40.7 °F 26.6 °F 46% 30.09 in 10.0 mi NNW 12.7 mph 19.6 mph N/A   Scattered Clouds
2:27 PM 50.0 °F - 26.6 °F 40% 30.09 in 10.0 mi NW 11.5 mph 25.3 mph N/A   Scattered Clouds
2:48 PM 50.0 °F - 26.6 °F 40% 30.09 in 10.0 mi NW 10.4 mph 21.9 mph N/A   Mostly Cloudy
3:06 PM 50.0 °F - 23.0 °F 35% 30.09 in 10.0 mi NW 13.8 mph 24.2 mph N/A   Mostly Cloudy
3:27 PM 50.0 °F - 23.0 °F 35% 30.09 in 10.0 mi WNW 18.4 mph 26.5 mph N/A   Mostly Cloudy
3:48 PM 48.2 °F - 24.8 °F 40% 30.09 in 10.0 mi NW 16.1 mph 28.8 mph N/A   Mostly Cloudy
4:06 PM 48.2 °F - 24.8 °F 40% 30.09 in 10.0 mi NNW 10.4 mph 23.0 mph N/A   Scattered Clouds
4:27 PM 46.4 °F 41.1 °F 23.0 °F 40% 30.09 in 10.0 mi North 11.5 mph 23.0 mph N/A   Scattered Clouds
5:06 PM 46.4 °F 40.4 °F 23.0 °F 40% 30.10 in 10.0 mi NW 13.8 mph 19.6 mph N/A   Clear
5:27 PM 44.6 °F 39.2 °F 23.0 °F 43% 30.11 in 10.0 mi NNW 10.4 mph 20.7 mph N/A   Clear
5:48 PM 44.6 °F 40.7 °F 23.0 °F 43% 30.11 in 10.0 mi WNW 6.9 mph - N/A   Scattered Clouds
6:06 PM 44.6 °F 38.4 °F 24.8 °F 46% 30.12 in 10.0 mi NW 12.7 mph 17.3 mph N/A   Mostly Cloudy
6:27 PM 42.8 °F 38.6 °F 26.6 °F 53% 30.13 in 10.0 mi NNW 6.9 mph 16.1 mph N/A   Overcast
6:48 PM 42.8 °F 38.6 °F 26.6 °F 53% 30.14 in 10.0 mi NW 6.9 mph - N/A   Overcast
8:48 PM 39.2 °F 35.9 °F 28.4 °F 65% 30.16 in 10.0 mi NW 4.6 mph - N/A   Scattered Clouds
9:06 PM 37.4 °F 32.8 °F 28.4 °F 70% 30.16 in 10.0 mi NW 5.8 mph - N/A   Scattered Clouds
9:27 PM 37.4 °F 33.8 °F 30.2 °F 75% 30.16 in 10.0 mi NW 4.6 mph - N/A   Mostly Cloudy
9:48 PM 39.2 °F 37.0 °F 30.2 °F 70% 30.16 in 10.0 mi NW 3.5 mph - N/A   Overcast
10:09 PM 37.4 °F - 30.2 °F 75% 30.16 in 10.0 mi Calm Calm - N/A   Overcast
10:27 PM 37.4 °F 34.9 °F 28.4 °F 70% 30.16 in 10.0 mi NW 3.5 mph - N/A   Overcast
10:48 PM 35.6 °F - 28.4 °F 75% 30.16 in 10.0 mi Calm Calm - N/A   Scattered Clouds
11:09 PM 35.6 °F 32.8 °F 28.4 °F 75% 30.16 in 10.0 mi NW 3.5 mph - N/A   Clear
11:27 PM 33.8 °F - 28.4 °F 81% 30.16 in 10.0 mi Calm Calm - N/A   Scattered Clouds
11:48 PM 33.8 °F 30.8 °F 28.4 °F 81% 30.16 in 10.0 mi WNW 3.5 mph - N/A   Mostly Cloudy